,,,PA_Meas_PMT16A,,PR_Meas_QMR101_102,,RH_Meas_QMH101,,SR_Meas_QMS101,,TA_Meas_QMH101,,GenWind,,GenWind,
date,time,status,PA,status,PR,status,RH,status,SR,status,TA,status,DirAvg,status,SpdAvg,
2009-09-12, 00:00:04,VALID,1010.3,VALID,0,VALID,97.5563,VALID,0.105969,VALID,24.8809,VALID,5,VALID,0.458984,
2009-09-12, 00:01:04,VALID,1010.31,VALID,0,VALID,97.5868,VALID,0,VALID,24.8828,VALID,5,VALID,0.203906,
2009-09-12, 00:02:04,VALID,1010.26,VALID,0,VALID,97.5791,VALID,0,VALID,24.8615,VALID,5,VALID,0.308594,
2009-09-12, 00:03:04,VALID,1010.24,VALID,0,VALID,97.5715,VALID,0,VALID,24.8828,VALID,344,VALID,0.526953,
2009-09-12, 00:04:04,VALID,1010.21,VALID,0,VALID,97.5944,VALID,0,VALID,24.8225,VALID,341,VALID,0.326562,
2009-09-12, 00:05:04,VALID,1010.21,VALID,0,VALID,97.5944,VALID,0,VALID,24.8244,VALID,341,VALID,0.3875,
2009-09-12, 00:06:04,VALID,1010.21,VALID,0,VALID,97.5868,VALID,0,VALID,24.8244,VALID,341,VALID,0.0703125,
2009-09-12, 00:07:04,VALID,1010.22,VALID,0,VALID,97.602,VALID,0,VALID,24.8049,VALID,341,VALID,0.232031,
2009-09-12, 00:08:04,VALID,1010.2,VALID,0,VALID,97.5868,VALID,0,VALID,24.8244,VALID,341,VALID,0.187891,
2009-09-12, 00:09:04,VALID,1010.18,VALID,0,VALID,97.5868,VALID,0.105969,VALID,24.7835,VALID,341,VALID,0.0128906,
2009-09-12, 00:10:04,VALID,1010.17,VALID,0,VALID,97.602,VALID,0,VALID,24.7854,VALID,341,VALID,0.003125,
2009-09-12, 00:11:04,VALID,1010.16,VALID,0,VALID,97.602,VALID,0,VALID,24.7659,VALID,341,VALID,0.00429688,
2009-09-12, 00:12:04,VALID,1010.16,VALID,0,VALID,97.6096,VALID,0,VALID,24.7464,VALID,341,VALID,0,
2009-09-12, 00:13:04,VALID,1010.13,VALID,0,VALID,97.602,VALID,0,VALID,24.7464,VALID,341,VALID,0.00898437,
2009-09-12, 00:14:04,VALID,1010.13,VALID,0,VALID,97.5868,VALID,0,VALID,24.7464,VALID,341,VALID,0,
2009-09-12, 00:15:04,VALID,1010.12,VALID,0,VALID,97.6096,VALID,0,VALID,24.7464,VALID,341,VALID,0.210156,
2009-09-12, 00:16:04,VALID,1010.12,VALID,0,VALID,97.5639,VALID,0,VALID,24.7678,VALID,341,VALID,0.352344,
2009-09-12, 00:17:04,VALID,1010.1,VALID,0,VALID,97.5791,VALID,0,VALID,24.7464,VALID,341,VALID,0.194922,
2009-09-12, 00:18:04,VALID,1010.11,VALID,0,VALID,97.5715,VALID,0,VALID,24.7659,VALID,341,VALID,0.260547,
2009-09-12, 00:19:04,VALID,1010.09,VALID,0,VALID,97.5715,VALID,0,VALID,24.7659,VALID,341,VALID,0.641406,
2009-09-12, 00:20:04,VALID,1010.09,VALID,0,VALID,97.5791,VALID,0,VALID,24.7659,VALID,349,VALID,0.790625,
2009-09-12, 00:21:04,VALID,1010.08,VALID,0,VALID,97.5791,VALID,0,VALID,24.7854,VALID,358,VALID,0.735937,
2009-09-12, 00:22:04,VALID,1010.06,VALID,0,VALID,97.5868,VALID,0,VALID,24.7659,VALID,358,VALID,0.773438,
2009-09-12, 00:23:04,VALID,1010.07,VALID,0,VALID,97.5944,VALID,0,VALID,24.7659,VALID,357,VALID,0.819922,
2009-09-12, 00:24:04,VALID,1010.08,VALID,0,VALID,97.602,VALID,0,VALID,24.7464,VALID,3,VALID,0.757813,
2009-09-12, 00:25:04,VALID,1010.07,VALID,0,VALID,97.5868,VALID,0,VALID,24.7678,VALID,359,VALID,0.839453,
2009-09-12, 00:26:04,VALID,1010.07,VALID,0,VALID,97.5944,VALID,0,VALID,24.7464,VALID,358,VALID,0.778906,
2009-09-12, 00:27:04,VALID,1010.06,VALID,0,VALID,97.5715,VALID,0,VALID,24.7464,VALID,356,VALID,0.739062,
2009-09-12, 00:28:04,VALID,1010.07,VALID,0,VALID,97.5639,VALID,0,VALID,24.7464,VALID,20,VALID,0.873828,
2009-09-12, 00:29:04,VALID,1010.05,VALID,0,VALID,97.5791,VALID,0,VALID,24.7464,VALID,25,VALID,0.740625,
2009-09-12, 00:30:04,VALID,1010.04,VALID,0,VALID,97.602,VALID,0,VALID,24.7269,VALID,13,VALID,0.645312,
2009-09-12, 00:31:04,VALID,1010.08,VALID,0,VALID,97.602,VALID,0,VALID,24.7269,VALID,21,VALID,0.898438,
2009-09-12, 00:32:04,VALID,1010.07,VALID,0,VALID,97.5944,VALID,0,VALID,24.7074,VALID,23,VALID,0.707031,
2009-09-12, 00:33:04,VALID,1010.05,VALID,0,VALID,97.6325,VALID,0,VALID,24.6666,VALID,44,VALID,0.702734,
2009-09-12, 00:34:04,VALID,1010.03,VALID,0,VALID,97.5944,VALID,0,VALID,24.6879,VALID,45,VALID,0.578906,
2009-09-12, 00:35:04,VALID,1010.05,VALID,0,VALID,97.6096,VALID,0,VALID,24.6684,VALID,45,VALID,0.581641,
2009-09-12, 00:36:04,VALID,1010.02,VALID,0,VALID,97.6173,VALID,0,VALID,24.6684,VALID,49,VALID,0.887109,
2009-09-12, 00:37:04,VALID,1010.05,VALID,0,VALID,97.602,VALID,0,VALID,24.6684,VALID,48,VALID,0.326953,
2009-09-12, 00:38:04,VALID,1010.05,VALID,0,VALID,97.5868,VALID,0,VALID,24.6684,VALID,39,VALID,0.333203,
2009-09-12, 00:39:04,VALID,1010.08,VALID,0,VALID,97.602,VALID,0,VALID,24.6898,VALID,38,VALID,0.434766,
2009-09-12, 00:40:04,VALID,1010.05,VALID,0,VALID,97.6325,VALID,0,VALID,24.6489,VALID,38,VALID,0,
2009-09-12, 00:41:04,VALID,1010.04,VALID,0,VALID,97.6249,VALID,0,VALID,24.6508,VALID,38,VALID,0,
2009-09-12, 00:42:04,VALID,1010.04,VALID,0,VALID,97.6173,VALID,0,VALID,24.6099,VALID,38,VALID,0,
2009-09-12, 00:43:04,VALID,1010.02,VALID,0,VALID,97.6249,VALID,0,VALID,24.6294,VALID,38,VALID,0,
2009-09-12, 00:44:04,VALID,1009.97,VALID,0,VALID,97.602,VALID,0,VALID,24.6294,VALID,38,VALID,0,
2009-09-12, 00:45:04,VALID,1009.96,VALID,0,VALID,97.6096,VALID,0,VALID,24.6099,VALID,38,VALID,0,
2009-09-12, 00:46:04,VALID,1009.97,VALID,0,VALID,97.6096,VALID,0,VALID,24.5905,VALID,38,VALID,0,
2009-09-12, 00:47:04,VALID,1009.95,VALID,0,VALID,97.6173,VALID,0,VALID,24.6099,VALID,37,VALID,0,
2009-09-12, 00:48:04,VALID,1009.93,VALID,0,VALID,97.6249,VALID,0,VALID,24.6099,VALID,37,VALID,0,
2009-09-12, 00:49:04,VALID,1009.92,VALID,0,VALID,97.6249,VALID,0,VALID,24.571,VALID,37,VALID,0,
2009-09-12, 00:50:04,VALID,1009.9,VALID,0,VALID,97.6478,VALID,0,VALID,24.5515,VALID,37,VALID,0,
2009-09-12, 00:51:04,VALID,1009.91,VALID,0,VALID,97.6554,VALID,0,VALID,24.5515,VALID,37,VALID,0,
2009-09-12, 00:52:04,VALID,1009.91,VALID,0,VALID,97.663,VALID,0,VALID,24.532,VALID,37,VALID,0.501953,
2009-09-12, 00:53:04,VALID,1009.87,VALID,0,VALID,97.6401,VALID,0,VALID,24.5125,VALID,37,VALID,0.391797,
2009-09-12, 00:54:04,VALID,1009.89,VALID,0,VALID,97.6325,VALID,0,VALID,24.5125,VALID,37,VALID,0.284375,
2009-09-12, 00:55:04,VALID,1009.83,VALID,0,VALID,97.6554,VALID,0,VALID,24.493,VALID,37,VALID,0.266016,
2009-09-12, 00:56:04,VALID,1009.79,VALID,0,VALID,97.6249,VALID,0,VALID,24.5144,VALID,37,VALID,0.0953125,
2009-09-12, 00:57:04,VALID,1009.79,VALID,0,VALID,97.6249,VALID,0,VALID,24.493,VALID,36,VALID,0.347266,
2009-09-12, 00:58:04,VALID,1009.76,VALID,0,VALID,97.602,VALID,0,VALID,24.5125,VALID,343,VALID,0.326562,
2009-09-12, 00:59:04,VALID,1009.75,VALID,0,VALID,97.5791,VALID,0,VALID,24.532,VALID,333,VALID,0.455469,
2009-09-12, 01:00:04,VALID,1009.72,VALID,0,VALID,97.5868,VALID,0,VALID,24.532,VALID,333,VALID,0.515625,
2009-09-12, 01:01:04,VALID,1009.73,VALID,0,VALID,97.6173,VALID,0,VALID,24.5515,VALID,333,VALID,0.558984,
2009-09-12, 01:02:04,VALID,1009.73,VALID,0,VALID,97.6096,VALID,0,VALID,24.5515,VALID,333,VALID,0.369922,
2009-09-12, 01:03:04,VALID,1009.72,VALID,0,VALID,97.6325,VALID,0,VALID,24.5515,VALID,333,VALID,0.249219,
2009-09-12, 01:04:04,VALID,1009.7,VALID,0,VALID,97.6173,VALID,0,VALID,24.5106,VALID,333,VALID,0,
2009-09-12, 01:05:04,VALID,1009.71,VALID,0,VALID,97.6401,VALID,0,VALID,24.5125,VALID,333,VALID,0,
2009-09-12, 01:06:04,VALID,1009.7,VALID,0,VALID,97.6249,VALID,0,VALID,24.5125,VALID,333,VALID,0,
2009-09-12, 01:07:04,VALID,1009.67,VALID,0,VALID,97.6325,VALID,0,VALID,24.493,VALID,333,VALID,0,
2009-09-12, 01:08:04,VALID,1009.67,VALID,0,VALID,97.6554,VALID,0,VALID,24.4735,VALID,333,VALID,0,
2009-09-12, 01:09:04,VALID,1009.65,VALID,0,VALID,97.6249,VALID,0,VALID,24.493,VALID,333,VALID,0,
2009-09-12, 01:10:04,VALID,1009.64,VALID,0,VALID,97.5868,VALID,0,VALID,24.5125,VALID,23,VALID,0.559766,
2009-09-12, 01:11:04,VALID,1009.63,VALID,0,VALID,97.602,VALID,0,VALID,24.5125,VALID,38,VALID,0.590234,
2009-09-12, 01:12:04,VALID,1009.62,VALID,0,VALID,97.6325,VALID,0,VALID,24.5125,VALID,39,VALID,0.566797,
2009-09-12, 01:13:04,VALID,1009.62,VALID,0,VALID,97.6173,VALID,0,VALID,24.493,VALID,39,VALID,0.497656,
2009-09-12, 01:14:04,VALID,1009.61,VALID,0,VALID,97.602,VALID,0,VALID,24.5125,VALID,53,VALID,0.613672,
2009-09-12, 01:15:04,VALID,1009.63,VALID,0,VALID,97.5791,VALID,0,VALID,24.5515,VALID,73,VALID,0.697656,
2009-09-12, 01:16:04,VALID,1009.63,VALID,0,VALID,97.5563,VALID,0,VALID,24.571,VALID,58,VALID,0.425391,
2009-09-12, 01:17:04,VALID,1009.59,VALID,0,VALID,97.5868,VALID,0,VALID,24.571,VALID,58,VALID,0.348828,
2009-09-12, 01:18:04,VALID,1009.61,VALID,0,VALID,97.6249,VALID,0,VALID,24.5515,VALID,58,VALID,0.258984,
2009-09-12, 01:19:04,VALID,1009.6,VALID,0,VALID,97.602,VALID,0,VALID,24.5515,VALID,58,VALID,0.0574219,
2009-09-12, 01:20:04,VALID,1009.62,VALID,0,VALID,97.6173,VALID,0,VALID,24.5728,VALID,48,VALID,0.470703,
2009-09-12, 01:21:04,VALID,1009.6,VALID,0,VALID,97.6096,VALID,0,VALID,24.532,VALID,41,VALID,0.114063,
2009-09-12, 01:22:04,VALID,1009.65,VALID,0,VALID,97.6249,VALID,0,VALID,24.532,VALID,41,VALID,0,
2009-09-12, 01:23:04,VALID,1009.63,VALID,0,VALID,97.602,VALID,0,VALID,24.5125,VALID,41,VALID,0.00117188,
2009-09-12, 01:24:04,VALID,1009.64,VALID,0,VALID,97.6096,VALID,0,VALID,24.532,VALID,41,VALID,0,
2009-09-12, 01:25:04,VALID,1009.67,VALID,0,VALID,97.6173,VALID,0,VALID,24.5125,VALID,41,VALID,0,
2009-09-12, 01:26:04,VALID,1009.66,VALID,0,VALID,97.6173,VALID,0,VALID,24.5144,VALID,41,VALID,0,
2009-09-12, 01:27:04,VALID,1009.68,VALID,0,VALID,97.602,VALID,0,VALID,24.493,VALID,41,VALID,0,
2009-09-12, 01:28:04,VALID,1009.65,VALID,0,VALID,97.6325,VALID,0,VALID,24.493,VALID,41,VALID,0,
2009-09-12, 01:29:04,VALID,1009.68,VALID,0,VALID,97.6173,VALID,0,VALID,24.4735,VALID,41,VALID,0,
2009-09-12, 01:30:04,VALID,1009.68,VALID,0,VALID,97.6325,VALID,0,VALID,24.4735,VALID,41,VALID,0,
2009-09-12, 01:31:04,VALID,1009.68,VALID,0,VALID,97.6325,VALID,0,VALID,24.4949,VALID,41,VALID,0,
2009-09-12, 01:32:04,VALID,1009.67,VALID,0,VALID,97.6325,VALID,0,VALID,24.4754,VALID,41,VALID,0,
2009-09-12, 01:33:04,VALID,1009.67,VALID,0,VALID,97.6249,VALID,0,VALID,24.454,VALID,41,VALID,0,
2009-09-12, 01:34:04,VALID,1009.65,VALID,0,VALID,97.6325,VALID,0,VALID,24.454,VALID,41,VALID,0,
2009-09-12, 01:35:04,VALID,1009.67,VALID,0,VALID,97.6401,VALID,0,VALID,24.4754,VALID,41,VALID,0,
2009-09-12, 01:36:04,VALID,1009.67,VALID,0,VALID,97.6173,VALID,0,VALID,24.454,VALID,41,VALID,0,
2009-09-12, 01:37:04,VALID,1009.67,VALID,0,VALID,97.6325,VALID,0,VALID,24.4345,VALID,41,VALID,0,
2009-09-12, 01:38:04,VALID,1009.7,VALID,0,VALID,97.6325,VALID,0,VALID,24.4345,VALID,41,VALID,0,
2009-09-12, 01:39:04,VALID,1009.68,VALID,0,VALID,97.6325,VALID,0,VALID,24.4364,VALID,41,VALID,0,
2009-09-12, 01:40:04,VALID,1009.68,VALID,0,VALID,97.6478,VALID,0,VALID,24.415,VALID,41,VALID,0,
2009-09-12, 01:41:04,VALID,1009.66,VALID,0,VALID,97.6325,VALID,0,VALID,24.3956,VALID,41,VALID,0,
2009-09-12, 01:42:04,VALID,1009.63,VALID,0,VALID,97.6249,VALID,0,VALID,24.4169,VALID,41,VALID,0,
2009-09-12, 01:43:04,VALID,1009.6,VALID,0,VALID,97.6325,VALID,0,VALID,24.415,VALID,41,VALID,0,
2009-09-12, 01:44:04,VALID,1009.55,VALID,0,VALID,97.6249,VALID,0,VALID,24.4364,VALID,41,VALID,0,
2009-09-12, 01:45:04,VALID,1009.53,VALID,0,VALID,97.6173,VALID,0,VALID,24.3956,VALID,41,VALID,0,
2009-09-12, 01:46:04,VALID,1009.49,VALID,0,VALID,97.6325,VALID,0,VALID,24.4169,VALID,41,VALID,0,
2009-09-12, 01:47:04,VALID,1009.51,VALID,0,VALID,97.6325,VALID,0,VALID,24.4169,VALID,41,VALID,0,
2009-09-12, 01:48:04,VALID,1009.5,VALID,0,VALID,97.6173,VALID,0,VALID,24.3956,VALID,41,VALID,0,
2009-09-12, 01:49:04,VALID,1009.46,VALID,0,VALID,97.6173,VALID,0,VALID,24.4169,VALID,41,VALID,0,
2009-09-12, 01:50:04,VALID,1009.44,VALID,0,VALID,97.5868,VALID,0,VALID,24.3956,VALID,41,VALID,0,
2009-09-12, 01:51:04,VALID,1009.44,VALID,0,VALID,97.6096,VALID,0,VALID,24.3956,VALID,41,VALID,0,
2009-09-12, 01:52:04,VALID,1009.39,VALID,0,VALID,97.6096,VALID,0,VALID,24.3956,VALID,41,VALID,0,
2009-09-12, 01:53:04,VALID,1009.39,VALID,0,VALID,97.6325,VALID,0,VALID,24.3974,VALID,41,VALID,0,
2009-09-12, 01:54:04,VALID,1009.41,VALID,0,VALID,97.6173,VALID,0,VALID,24.3956,VALID,41,VALID,0,
2009-09-12, 01:55:04,VALID,1009.37,VALID,0,VALID,97.6249,VALID,0,VALID,24.3974,VALID,41,VALID,0,
2009-09-12, 01:56:04,VALID,1009.39,VALID,0,VALID,97.6401,VALID,0,VALID,24.3761,VALID,41,VALID,0,
2009-09-12, 01:57:04,VALID,1009.39,VALID,0,VALID,97.6173,VALID,0,VALID,24.3566,VALID,41,VALID,0,
2009-09-12, 01:58:04,VALID,1009.37,VALID,0,VALID,97.6325,VALID,0,VALID,24.3371,VALID,41,VALID,0,
2009-09-12, 01:59:04,VALID,1009.38,VALID,0,VALID,97.6859,VALID,0,VALID,24.3194,VALID,41,VALID,0,
2009-09-12, 02:00:04,VALID,1009.36,VALID,0,VALID,97.663,VALID,0,VALID,24.3,VALID,41,VALID,0,
2009-09-12, 02:01:04,VALID,1009.35,VALID,0,VALID,97.6478,VALID,0.105969,VALID,24.2768,VALID,41,VALID,0,
2009-09-12, 02:02:04,VALID,1009.31,VALID,0,VALID,97.6249,VALID,0.105969,VALID,24.2768,VALID,41,VALID,0,
2009-09-12, 02:03:04,VALID,1009.32,VALID,0,VALID,97.5944,VALID,0.105969,VALID,24.3158,VALID,41,VALID,0,
2009-09-12, 02:04:04,VALID,1009.29,VALID,0,VALID,97.5715,VALID,0.105969,VALID,24.3547,VALID,41,VALID,0.266406,
2009-09-12, 02:05:04,VALID,1009.3,VALID,0,VALID,97.541,VALID,0.105969,VALID,24.3956,VALID,41,VALID,0.300391,
2009-09-12, 02:06:04,VALID,1009.27,VALID,0,VALID,97.5563,VALID,0,VALID,24.3956,VALID,41,VALID,0.336719,
2009-09-12, 02:07:04,VALID,1009.32,VALID,0,VALID,97.6249,VALID,0.105969,VALID,24.3761,VALID,41,VALID,0,
2009-09-12, 02:08:04,VALID,1009.3,VALID,0,VALID,97.6173,VALID,0.105969,VALID,24.3566,VALID,41,VALID,0,
2009-09-12, 02:09:04,VALID,1009.3,VALID,0,VALID,97.6249,VALID,0,VALID,24.3158,VALID,41,VALID,0,
2009-09-12, 02:10:04,VALID,1009.31,VALID,0,VALID,97.6325,VALID,0,VALID,24.3158,VALID,41,VALID,0,
2009-09-12, 02:11:04,VALID,1009.29,VALID,0,VALID,97.6249,VALID,0.105969,VALID,24.3158,VALID,41,VALID,0,
2009-09-12, 02:12:04,VALID,1009.29,VALID,0,VALID,97.6249,VALID,0.105969,VALID,24.3158,VALID,41,VALID,0,
2009-09-12, 02:13:04,VALID,1009.28,VALID,0,VALID,97.6173,VALID,0,VALID,24.3371,VALID,41,VALID,0,
2009-09-12, 02:14:04,VALID,1009.29,VALID,0,VALID,97.5868,VALID,0,VALID,24.3761,VALID,41,VALID,0,
2009-09-12, 02:15:04,VALID,1009.31,VALID,0,VALID,97.5944,VALID,0,VALID,24.3761,VALID,41,VALID,0,
2009-09-12, 02:16:04,VALID,1009.28,VALID,0,VALID,97.5868,VALID,0,VALID,24.3956,VALID,41,VALID,0,
2009-09-12, 02:17:04,VALID,1009.26,VALID,0,VALID,97.602,VALID,0,VALID,24.3761,VALID,41,VALID,0.227344,
2009-09-12, 02:18:04,VALID,1009.28,VALID,0,VALID,97.5868,VALID,0,VALID,24.3566,VALID,41,VALID,0.183203,
2009-09-12, 02:19:04,VALID,1009.27,VALID,0,VALID,97.6325,VALID,0,VALID,24.3584,VALID,41,VALID,0.262891,
2009-09-12, 02:20:04,VALID,1009.27,VALID,0,VALID,97.6249,VALID,0,VALID,24.3176,VALID,41,VALID,0,
2009-09-12, 02:21:04,VALID,1009.27,VALID,0,VALID,97.6478,VALID,0,VALID,24.2786,VALID,41,VALID,0,
2009-09-12, 02:22:04,VALID,1009.26,VALID,0,VALID,97.663,VALID,0,VALID,24.2786,VALID,101,VALID,0.328906,
2009-09-12, 02:23:04,VALID,1009.28,VALID,0,VALID,97.6478,VALID,0,VALID,24.2786,VALID,101,VALID,0.344141,
2009-09-12, 02:24:04,VALID,1009.27,VALID,0,VALID,97.6249,VALID,0,VALID,24.2591,VALID,101,VALID,0.347266,
2009-09-12, 02:25:04,VALID,1009.29,VALID,0,VALID,97.602,VALID,0,VALID,24.3,VALID,101,VALID,0.357812,
2009-09-12, 02:26:04,VALID,1009.26,VALID,0,VALID,97.6325,VALID,0,VALID,24.2396,VALID,101,VALID,0.144141,
2009-09-12, 02:27:04,VALID,1009.27,VALID,0,VALID,97.7164,VALID,0,VALID,24.183,VALID,101,VALID,0,
2009-09-12, 02:28:04,VALID,1009.25,VALID,0,VALID,97.7164,VALID,0.105969,VALID,24.1404,VALID,101,VALID,0.00078125,
2009-09-12, 02:29:04,VALID,1009.22,VALID,0,VALID,97.6554,VALID,0,VALID,24.1599,VALID,101,VALID,0.174609,
2009-09-12, 02:30:04,VALID,1009.2,VALID,0,VALID,97.6096,VALID,0,VALID,24.2396,VALID,101,VALID,0.253906,
2009-09-12, 02:31:04,VALID,1009.17,VALID,0,VALID,97.5868,VALID,0,VALID,24.2202,VALID,101,VALID,0,
2009-09-12, 02:32:04,VALID,1009.15,VALID,0,VALID,97.602,VALID,0.105969,VALID,24.2202,VALID,101,VALID,0,
2009-09-12, 02:33:04,VALID,1009.16,VALID,0,VALID,97.6096,VALID,0.105969,VALID,24.2183,VALID,101,VALID,0,
2009-09-12, 02:34:04,VALID,1009.19,VALID,0,VALID,97.6096,VALID,0.105969,VALID,24.2378,VALID,101,VALID,0,
2009-09-12, 02:35:04,VALID,1009.18,VALID,0,VALID,97.5944,VALID,0.105969,VALID,24.2591,VALID,101,VALID,0,
2009-09-12, 02:36:04,VALID,1009.16,VALID,0,VALID,97.5563,VALID,0.105969,VALID,24.2768,VALID,101,VALID,0,
2009-09-12, 02:37:04,VALID,1009.15,VALID,0,VALID,97.5563,VALID,0.105969,VALID,24.2963,VALID,101,VALID,0,
2009-09-12, 02:38:04,VALID,1009.17,VALID,0,VALID,97.5639,VALID,0.105969,VALID,24.3176,VALID,101,VALID,0,
2009-09-12, 02:39:04,VALID,1009.18,VALID,0,VALID,97.5791,VALID,0.105969,VALID,24.2963,VALID,101,VALID,0,
2009-09-12, 02:40:04,VALID,1009.21,VALID,0,VALID,97.602,VALID,0.105969,VALID,24.3158,VALID,101,VALID,0,
2009-09-12, 02:41:04,VALID,1009.22,VALID,0,VALID,97.6096,VALID,0.105969,VALID,24.2963,VALID,101,VALID,0,
2009-09-12, 02:42:04,VALID,1009.24,VALID,0,VALID,97.6096,VALID,0.105969,VALID,24.2963,VALID,101,VALID,0.255078,
2009-09-12, 02:43:04,VALID,1009.24,VALID,0,VALID,97.6249,VALID,0,VALID,24.2981,VALID,101,VALID,0.316797,
2009-09-12, 02:44:04,VALID,1009.28,VALID,0,VALID,97.5944,VALID,0,VALID,24.2981,VALID,101,VALID,0.135547,
2009-09-12, 02:45:04,VALID,1009.29,VALID,0,VALID,97.5944,VALID,0,VALID,24.3176,VALID,101,VALID,0,
2009-09-12, 02:46:04,VALID,1009.3,VALID,0,VALID,97.6096,VALID,0,VALID,24.3176,VALID,101,VALID,0,
2009-09-12, 02:47:04,VALID,1009.32,VALID,0,VALID,97.6096,VALID,0,VALID,24.3194,VALID,101,VALID,0,
2009-09-12, 02:48:04,VALID,1009.31,VALID,0,VALID,97.6096,VALID,0,VALID,24.2981,VALID,101,VALID,0,
2009-09-12, 02:49:04,VALID,1009.3,VALID,0,VALID,97.6096,VALID,0,VALID,24.2981,VALID,101,VALID,0,
2009-09-12, 02:50:04,VALID,1009.32,VALID,0,VALID,97.6096,VALID,0,VALID,24.3194,VALID,101,VALID,0,
2009-09-12, 02:51:04,VALID,1009.3,VALID,0,VALID,97.6249,VALID,0,VALID,24.3194,VALID,101,VALID,0,
2009-09-12, 02:52:04,VALID,1009.31,VALID,0,VALID,97.6173,VALID,0,VALID,24.2981,VALID,101,VALID,0,
2009-09-12, 02:53:04,VALID,1009.32,VALID,0,VALID,97.6173,VALID,0,VALID,24.3194,VALID,101,VALID,0,
2009-09-12, 02:54:04,VALID,1009.32,VALID,0,VALID,97.6096,VALID,0,VALID,24.3,VALID,101,VALID,0,
2009-09-12, 02:55:04,VALID,1009.33,VALID,0,VALID,97.6249,VALID,0,VALID,24.2591,VALID,101,VALID,0,
2009-09-12, 02:56:04,VALID,1009.33,VALID,0,VALID,97.6249,VALID,0,VALID,24.2591,VALID,101,VALID,0,
2009-09-12, 02:57:04,VALID,1009.33,VALID,0,VALID,97.6325,VALID,0,VALID,24.2786,VALID,101,VALID,0,
2009-09-12, 02:58:04,VALID,1009.32,VALID,0,VALID,97.602,VALID,0,VALID,24.2786,VALID,101,VALID,0,
2009-09-12, 02:59:04,VALID,1009.34,VALID,0,VALID,97.6096,VALID,0,VALID,24.2786,VALID,101,VALID,0,
2009-09-12, 03:00:04,VALID,1009.32,VALID,0,VALID,97.6173,VALID,0,VALID,24.2591,VALID,101,VALID,0,
2009-09-12, 03:01:04,VALID,1009.31,VALID,0,VALID,97.6173,VALID,0,VALID,24.2786,VALID,101,VALID,0,
2009-09-12, 03:02:04,VALID,1009.34,VALID,0,VALID,97.6096,VALID,0,VALID,24.2786,VALID,101,VALID,0,
2009-09-12, 03:03:04,VALID,1009.37,VALID,0,VALID,97.6325,VALID,0,VALID,24.3,VALID,101,VALID,0,
2009-09-12, 03:04:04,VALID,1009.34,VALID,0,VALID,97.6173,VALID,0,VALID,24.2591,VALID,101,VALID,0,
2009-09-12, 03:05:04,VALID,1009.34,VALID,0,VALID,97.6096,VALID,0,VALID,24.2786,VALID,101,VALID,0,
2009-09-12, 03:06:04,VALID,1009.35,VALID,0,VALID,97.6325,VALID,0,VALID,24.2805,VALID,101,VALID,0.339063,
2009-09-12, 03:07:04,VALID,1009.31,VALID,0,VALID,97.6173,VALID,0,VALID,24.2591,VALID,101,VALID,0.354297,
2009-09-12, 03:08:04,VALID,1009.32,VALID,0,VALID,97.6478,VALID,0,VALID,24.2591,VALID,101,VALID,0.233984,
2009-09-12, 03:09:04,VALID,1009.32,VALID,0,VALID,97.6478,VALID,0,VALID,24.2396,VALID,101,VALID,0,
2009-09-12, 03:10:04,VALID,1009.34,VALID,0,VALID,97.6478,VALID,0,VALID,24.2396,VALID,101,VALID,0,
2009-09-12, 03:11:04,VALID,1009.31,VALID,0,VALID,97.6401,VALID,0,VALID,24.2202,VALID,101,VALID,0.121094,
2009-09-12, 03:12:04,VALID,1009.32,VALID,0,VALID,97.6478,VALID,0,VALID,24.2415,VALID,101,VALID,0,
2009-09-12, 03:13:04,VALID,1009.33,VALID,0,VALID,97.6325,VALID,0,VALID,24.2007,VALID,101,VALID,0,
2009-09-12, 03:14:04,VALID,1009.36,VALID,0,VALID,97.6249,VALID,0,VALID,24.2007,VALID,101,VALID,0.159766,
2009-09-12, 03:15:04,VALID,1009.35,VALID,0,VALID,97.6325,VALID,0,VALID,24.1812,VALID,101,VALID,0.0617188,
2009-09-12, 03:16:04,VALID,1009.36,VALID,0,VALID,97.6173,VALID,0,VALID,24.2007,VALID,101,VALID,0,
2009-09-12, 03:17:04,VALID,1009.38,VALID,0,VALID,97.6096,VALID,0,VALID,24.2202,VALID,74,VALID,0,
2009-09-12, 03:18:04,VALID,1009.38,VALID,0,VALID,97.6325,VALID,0,VALID,24.2007,VALID,70,VALID,0,
2009-09-12, 03:19:04,VALID,1009.39,VALID,0,VALID,97.6249,VALID,0,VALID,24.1812,VALID,70,VALID,0,
2009-09-12, 03:20:04,VALID,1009.4,VALID,0,VALID,97.6401,VALID,0,VALID,24.2007,VALID,70,VALID,0,
2009-09-12, 03:21:04,VALID,1009.43,VALID,0,VALID,97.6173,VALID,0,VALID,24.222,VALID,70,VALID,0,
2009-09-12, 03:22:04,VALID,1009.44,VALID,0,VALID,97.6096,VALID,0,VALID,24.2007,VALID,70,VALID,0,
2009-09-12, 03:23:04,VALID,1009.46,VALID,0,VALID,97.6325,VALID,0,VALID,24.2007,VALID,70,VALID,0,
2009-09-12, 03:24:04,VALID,1009.47,VALID,0,VALID,97.6249,VALID,0,VALID,24.2007,VALID,41,VALID,0.410156,
2009-09-12, 03:25:04,VALID,1009.47,VALID,0,VALID,97.6096,VALID,0,VALID,24.1812,VALID,7,VALID,0.403125,
2009-09-12, 03:26:04,VALID,1009.45,VALID,0,VALID,97.6325,VALID,0,VALID,24.1812,VALID,7,VALID,0.526953,
2009-09-12, 03:27:04,VALID,1009.47,VALID,0,VALID,97.6173,VALID,0,VALID,24.2007,VALID,7,VALID,0.307422,
2009-09-12, 03:28:04,VALID,1009.48,VALID,0,VALID,97.6478,VALID,0,VALID,24.1812,VALID,7,VALID,0.25625,
2009-09-12, 03:29:04,VALID,1009.48,VALID,0,VALID,97.6325,VALID,0,VALID,24.2025,VALID,7,VALID,0.133594,
2009-09-12, 03:30:04,VALID,1009.49,VALID,0,VALID,97.6401,VALID,0,VALID,24.1812,VALID,7,VALID,0.00546875,
2009-09-12, 03:31:04,VALID,1009.47,VALID,0,VALID,97.6249,VALID,0,VALID,24.1812,VALID,6,VALID,0.282031,
2009-09-12, 03:32:04,VALID,1009.47,VALID,0,VALID,97.6249,VALID,0,VALID,24.1812,VALID,6,VALID,0.251563,
2009-09-12, 03:33:04,VALID,1009.49,VALID,0,VALID,97.6249,VALID,0,VALID,24.1812,VALID,6,VALID,0,
2009-09-12, 03:34:04,VALID,1009.45,VALID,0,VALID,97.6325,VALID,0,VALID,24.1812,VALID,6,VALID,0,
2009-09-12, 03:35:04,VALID,1009.46,VALID,0,VALID,97.6173,VALID,0,VALID,24.1812,VALID,6,VALID,0,
2009-09-12, 03:36:04,VALID,1009.43,VALID,0,VALID,97.6173,VALID,0,VALID,24.1812,VALID,6,VALID,0,
2009-09-12, 03:37:04,VALID,1009.4,VALID,0,VALID,97.6096,VALID,0,VALID,24.1812,VALID,6,VALID,0,
2009-09-12, 03:38:04,VALID,1009.38,VALID,0,VALID,97.6173,VALID,0,VALID,24.1812,VALID,6,VALID,0,
2009-09-12, 03:39:04,VALID,1009.4,VALID,0,VALID,97.6249,VALID,0,VALID,24.1617,VALID,6,VALID,0,
2009-09-12, 03:40:04,VALID,1009.4,VALID,0,VALID,97.6249,VALID,0,VALID,24.1617,VALID,6,VALID,0,
2009-09-12, 03:41:04,VALID,1009.4,VALID,0,VALID,97.6173,VALID,0,VALID,24.1812,VALID,6,VALID,0,
2009-09-12, 03:42:04,VALID,1009.42,VALID,0,VALID,97.6096,VALID,0,VALID,24.1812,VALID,6,VALID,0,
2009-09-12, 03:43:04,VALID,1009.41,VALID,0,VALID,97.602,VALID,0,VALID,24.183,VALID,6,VALID,0,
2009-09-12, 03:44:04,VALID,1009.44,VALID,0,VALID,97.5944,VALID,0,VALID,24.1812,VALID,6,VALID,0,
2009-09-12, 03:45:04,VALID,1009.45,VALID,0,VALID,97.602,VALID,0,VALID,24.1812,VALID,6,VALID,0,
2009-09-12, 03:46:04,VALID,1009.47,VALID,0,VALID,97.6096,VALID,0,VALID,24.1812,VALID,6,VALID,0,
2009-09-12, 03:47:04,VALID,1009.49,VALID,0,VALID,97.6096,VALID,0,VALID,24.2025,VALID,6,VALID,0,
2009-09-12, 03:48:04,VALID,1009.47,VALID,0,VALID,97.602,VALID,0,VALID,24.2007,VALID,6,VALID,0,
2009-09-12, 03:49:04,VALID,1009.49,VALID,0,VALID,97.602,VALID,0,VALID,24.2007,VALID,6,VALID,0,
2009-09-12, 03:50:04,VALID,1009.48,VALID,0,VALID,97.5868,VALID,0,VALID,24.2007,VALID,6,VALID,0,
2009-09-12, 03:51:04,VALID,1009.47,VALID,0,VALID,97.5944,VALID,0,VALID,24.2415,VALID,6,VALID,0,
2009-09-12, 03:52:04,VALID,1009.47,VALID,0,VALID,97.5791,VALID,0,VALID,24.2202,VALID,6,VALID,0,
2009-09-12, 03:53:04,VALID,1009.51,VALID,0,VALID,97.5944,VALID,0,VALID,24.2202,VALID,6,VALID,0,